545  
ASUS42 KFFC 211610  
RWRGA  
WEATHER ROUNDUP FOR GEORGIA  
NATIONAL WEATHER SERVICE PEACHTREE CITY GA  
1200 PM EDT SAT MAY 21 2022  
 
NOTE: "FAIR" INDICATES FEW OR NO CLOUDS BELOW 12,000 FEET WITH NO  
SIGNIFICANT WEATHER AND/OR S TO VISIBILITY
.  
 
* = USE WITH CAUTION. THE STATIONS MARKED WITH AN ASTERISK MAY NOT  
REPORT WEATHER SUCH AS PRECIPITATION, FOG, OR THUNDER AND ARE NOT  
QUALITY CONTROLLED BY NWS.  
 
THE REMARK "TC" DENOTES TEMPERATURE READING IN DEGREES CELSIUS.  
 
GAZ001>058-211700-  
NORTH GEORGIA  
 
CITY SKY/WX TMP DP RH WIND PRES REMARKS
 
ATLANTA MOSUNNY 80 67 64 S8 30.20R  
ATHENS PTSUNNY 81 68 64 VRB6 30.20R  
CHAMBLEE PTSUNNY 83 68 60 S6 30.19R  
PEACHTREE CITY PTSUNNY 81 68 64 CALM 30.20R  
ROME SUNNY 85 65 51 SW12G17 30.14R  
WEST ATLANTA PTSUNNY 81 69 67 S8 30.18R  
GAINESVILLE MOSUNNY 82 64 54 S8 30.21R  
CARTERSVILLE MOSUNNY 84 66 54 S14 30.16R  
 
 
CITY SKY/WX TMP DP RH WIND PRES REMARKS
 
DALTON* PTSUNNY 82 64 54 W3 30.16R  
LAWRENCEVILLE* LGT RAIN 73 68 84 SE6 30.19R  
MARIETTA PTSUNNY 80 68 65 S12G18 30.18R  
KENNESAW* PTSUNNY 81 68 64 S8 30.19R  
CANTON* PTSUNNY 81 64 57 CALM 30.20R  
BLAIRSVILLE* MOSUNNY 79 64 60 W6 30.20S  

 
 
GAZ059>098-102>109-211700-  
CENTRAL GEORGIA  
 
CITY SKY/WX TMP DP RH WIND PRES REMARKS
 
AUGUSTA-BUSH PTSUNNY 86 69 56 VRB6 30.17R HX 90  
AUGUSTA-DANIEL MOSUNNY 87 67 51 VRB5 30.19R HX 90  
COLUMBUS MOSUNNY 86 69 56 S10 30.16R HX 90  
MACON PTSUNNY 87 69 54 SW12 30.18R HX 91  
ROBINS AFB PTSUNNY 84 71 63 SW8 30.17R  
 
 
CITY SKY/WX TMP DP RH WIND PRES REMARKS
 
LAGRANGE* MOSUNNY 81 68 64 SW7 30.19R  
SYLVANIA* PTSUNNY 84 72 65 SW5 30.21R  
MILLEDGEVILLE* PTSUNNY 86 72 62 CALM 30.22R HX 92  

 
 
GAZ099>101-110>166-211700-  
SOUTH GEORGIA  
 
CITY SKY/WX TMP DP RH WIND PRES REMARKS
 
SAVANNAH PTSUNNY 85 67 54 W8 30.20S  
VALDOSTA CLOUDY 83 72 69 S9 30.19S  
ALMA PTSUNNY 83 70 64 S7 30.19R  
ST SIMONS PTSUNNY 82 70 66 SE10 30.23R  
FT STEWART PTSUNNY 84 71 63 S9 30.18R  
ALBANY CLOUDY 89 70 53 SW12 30.17S HX 94  
HUNTER AFB PTSUNNY 85 76 72 SW9 30.18S HX 95  
MOODY AFB CLOUDY 83 72 69 S9 30.17S  
BRUNSWICK LGT RAIN 78 72 81 SE9 30.23R  
 
 
CITY SKY/WX TMP DP RH WIND PRES REMARKS
 
BAINBRIDGE* CLOUDY 85 71 64 S12 30.16F HX 90  
MOULTRIE* CLOUDY 82 72 69 S3 30.18F  
VIDALIA* PTSUNNY 84 70 61 CALM 30.20S  
WAYCROSS* PTSUNNY 86 72 62 SW10 30.20S HX 92  
DOUGLAS* PTSUNNY 81 71 71 SW3 30.21S  

 
 
 
CLICK HERE TO GO TO PREVIOUS BULLETINS.

The Nexlab GA Page Main Text Page